When you browse on this site, cookies collect data to enhance your experience and personalize the content and advertising you see.
Visit our Privacy Policy to learn more. By continuing to use the site, you agree to this use of cookies and data.
  • In Österreich
  • Länderverzeichnis
  • Für 7 Tage
  • Wassertemperatur
  • Satellitenkarten
  • Wetterkarte
  • News
  • Widgets
  • user-avatar
    Anmelden

    Stündliche Wetter Canberra

    Heute, 21 Mai, Dienstag

    Zeit Temperatur Niederschläge Wind Luftdruck Luftfeuchtigkeit
    00:00 +10°C° 0 mm 1 m/S 713 mmHg 86%
    01:00 +10°C° 0 mm 1 m/S 713 mmHg 86%
    02:00 +10°C° 0 mm 1 m/S 713 mmHg 86%
    03:00 +10°C° 0 mm 1 m/S 713 mmHg 87%
    04:00 +10°C° 0 mm 1 m/S 713 mmHg 86%
    05:00 +9°C° 0 mm 1 m/S 713 mmHg 87%
    06:00 +9°C° 0 mm 1 m/S 714 mmHg 89%
    07:00 +9°C° 0 mm 1 m/S 714 mmHg 90%
    08:00 +12°C° 0 mm 2 m/S 714 mmHg 81%
    09:00 +13°C° 0 mm 3 m/S 715 mmHg 73%
    10:00 +17°C° 0 mm 3 m/S 715 mmHg 64%
    11:00 +18°C° 0 mm 3 m/S 715 mmHg 59%
    12:00 +19°C° 0 mm 4 m/S 715 mmHg 54%
    13:00 +21°C° 0 mm 5 m/S 715 mmHg 50%
    14:00 +20°C° 0 mm 4 m/S 715 mmHg 53%
    15:00 +19°C° 0 mm 4 m/S 715 mmHg 56%
    16:00 +18°C° 0 mm 3 m/S 714 mmHg 63%
    17:00 +16°C° 0 mm 2 m/S 714 mmHg 71%
    18:00 +15°C° 0 mm 1 m/S 715 mmHg 80%
    19:00 +13°C° 0 mm 1 m/S 715 mmHg 88%
    20:00 +12°C° 0 mm 1 m/S 715 mmHg 89%
    21:00 +12°C° 0 mm 1 m/S 715 mmHg 90%
    22:00 +11°C° 0 mm 1 m/S 715 mmHg 91%
    23:00 +11°C° 0 mm 1 m/S 715 mmHg 91%

    Morgen, 22 Mai, Mittwoch

    Zeit Temperatur Niederschläge Wind Luftdruck Luftfeuchtigkeit
    00:00 +11°C° 0 mm 1 m/S 715 mmHg 92%
    01:00 +10°C° 0 mm 1 m/S 716 mmHg 93%
    02:00 +10°C° 0 mm 1 m/S 716 mmHg 93%
    03:00 +10°C° 0 mm 1 m/S 716 mmHg 94%
    04:00 +8°C° 0 mm 0 m/S 716 mmHg 94%
    05:00 +8°C° 0 mm 0 m/S 716 mmHg 94%
    06:00 +8°C° 0 mm 0 m/S 716 mmHg 94%
    07:00 +8°C° 0 mm 0 m/S 716 mmHg 94%
    08:00 +10°C° 0 mm 0 m/S 717 mmHg 84%
    09:00 +14°C° 0 mm 1 m/S 717 mmHg 74%
    10:00 +16°C° 0 mm 1 m/S 718 mmHg 64%
    11:00 +19°C° 0 mm 1 m/S 718 mmHg 55%
    12:00 +20°C° 0 mm 1 m/S 717 mmHg 47%
    13:00 +22°C° 0 mm 1 m/S 717 mmHg 38%
    14:00 +21°C° 0 mm 1 m/S 717 mmHg 41%
    15:00 +20°C° 0 mm 1 m/S 717 mmHg 45%
    16:00 +20°C° 0 mm 1 m/S 717 mmHg 48%
    17:00 +16°C° 0 mm 1 m/S 717 mmHg 59%
    18:00 +14°C° 0 mm 1 m/S 717 mmHg 69%
    19:00 +11°C° 0 mm 1 m/S 717 mmHg 80%
    20:00 +11°C° 0 mm 1 m/S 717 mmHg 84%
    21:00 +11°C° 0 mm 1 m/S 717 mmHg 88%
    22:00 +10°C° 0 mm 1 m/S 718 mmHg 93%
    23:00 +10°C° 0 mm 1 m/S 718 mmHg 94%

    übermorgen, 23 Mai, Donnerstag

    Zeit Temperatur Niederschläge Wind Luftdruck Luftfeuchtigkeit
    00:00 +10°C° 0 mm 1 m/S 718 mmHg 95%
    01:00 +10°C° 0 mm 1 m/S 717 mmHg 97%
    02:00 +10°C° 0 mm 1 m/S 717 mmHg 97%
    03:00 +10°C° 0 mm 1 m/S 717 mmHg 97%
    04:00 +9°C° 0 mm 1 m/S 717 mmHg 97%
    05:00 +9°C° 0 mm 1 m/S 717 mmHg 97%
    06:00 +10°C° 0 mm 1 m/S 717 mmHg 96%
    07:00 +10°C° 0 mm 1 m/S 718 mmHg 95%
    08:00 +11°C° 0 mm 1 m/S 718 mmHg 91%
    09:00 +12°C° 0 mm 1 m/S 718 mmHg 86%
    10:00 +14°C° 0 mm 1 m/S 718 mmHg 81%
    11:00 +15°C° 0 mm 1 m/S 717 mmHg 72%
    12:00 +18°C° 0 mm 1 m/S 717 mmHg 63%
    13:00 +19°C° 0 mm 1 m/S 716 mmHg 54%
    14:00 +19°C° 0 mm 1 m/S 716 mmHg 54%
    15:00 +19°C° 0 mm 1 m/S 716 mmHg 55%
    16:00 +18°C° 0 mm 1 m/S 715 mmHg 55%
    17:00 +15°C° 0 mm 1 m/S 715 mmHg 64%
    18:00 +13°C° 0 mm 1 m/S 715 mmHg 72%
    19:00 +11°C° 0 mm 1 m/S 715 mmHg 81%
    20:00 +10°C° 0 mm 1 m/S 716 mmHg 82%
    21:00 +10°C° 0 mm 1 m/S 716 mmHg 83%
    22:00 +9°C° 0 mm 1 m/S 716 mmHg 84%
    23:00 +9°C° 0 mm 1 m/S 715 mmHg 81%

    24 Mai, Freitag

    Zeit Temperatur Niederschläge Wind Luftdruck Luftfeuchtigkeit
    00:00 +8°C° 0 mm 1 m/S 715 mmHg 78%
    01:00 +8°C° 0 mm 1 m/S 715 mmHg 75%
    02:00 +8°C° 0 mm 1 m/S 714 mmHg 72%
    03:00 +8°C° 0 mm 1 m/S 714 mmHg 70%
    04:00 +8°C° 0 mm 1 m/S 714 mmHg 67%
    05:00 +8°C° 0 mm 1 m/S 714 mmHg 68%
    06:00 +8°C° 0 mm 1 m/S 714 mmHg 69%
    07:00 +7°C° 0 mm 0 m/S 714 mmHg 69%
    08:00 +10°C° 0 mm 1 m/S 714 mmHg 62%
    09:00 +13°C° 0 mm 1 m/S 714 mmHg 54%
    10:00 +16°C° 0 mm 2 m/S 715 mmHg 47%
    11:00 +17°C° 0 mm 2 m/S 714 mmHg 45%
    12:00 +19°C° 0 mm 3 m/S 714 mmHg 44%
    13:00 +20°C° 0 mm 4 m/S 713 mmHg 42%
    14:00 +19°C° 0 mm 4 m/S 713 mmHg 46%
    15:00 +19°C° 0 mm 3 m/S 712 mmHg 49%
    16:00 +18°C° 0 mm 3 m/S 712 mmHg 53%
    17:00 +16°C° 0 mm 3 m/S 712 mmHg 59%
    18:00 +14°C° 0 mm 2 m/S 712 mmHg 65%
    19:00 +13°C° 0 mm 1 m/S 712 mmHg 72%
    20:00 +12°C° 0 mm 1 m/S 712 mmHg 73%
    21:00 +12°C° 0 mm 1 m/S 712 mmHg 75%
    22:00 +11°C° 0 mm 1 m/S 712 mmHg 76%
    23:00 +11°C° 0 mm 1 m/S 712 mmHg 75%

    25 Mai, Samstag

    Zeit Temperatur Niederschläge Wind Luftdruck Luftfeuchtigkeit
    00:00 +11°C° 0 mm 1 m/S 711 mmHg 74%
    01:00 +11°C° 0 mm 1 m/S 711 mmHg 73%
    02:00 +12°C° 0 mm 1 m/S 711 mmHg 72%
    03:00 +12°C° 0 mm 1 m/S 711 mmHg 71%
    04:00 +12°C° 0 mm 1 m/S 711 mmHg 70%
    05:00 +12°C° 0 mm 1 m/S 711 mmHg 70%
    06:00 +11°C° 0 mm 1 m/S 711 mmHg 70%
    07:00 +11°C° 0 mm 1 m/S 711 mmHg 70%
    08:00 +13°C° 0 mm 2 m/S 711 mmHg 65%
    09:00 +15°C° 0 mm 2 m/S 711 mmHg 61%
    10:00 +16°C° 0 mm 3 m/S 711 mmHg 56%
    11:00 +17°C° 0 mm 4 m/S 711 mmHg 53%
    12:00 +18°C° 0 mm 4 m/S 710 mmHg 50%
    13:00 +19°C° 0 mm 5 m/S 710 mmHg 48%
    14:00 +19°C° 0 mm 4 m/S 710 mmHg 50%
    15:00 +18°C° 0 mm 4 m/S 709 mmHg 53%
    16:00 +18°C° 0 mm 3 m/S 709 mmHg 55%
    17:00 +16°C° 0.1 mm 3 m/S 709 mmHg 63%
    18:00 +14°C° 0.1 mm 3 m/S 709 mmHg 71%
    19:00 +14°C° 0.1 mm 2 m/S 709 mmHg 79%
    20:00 +13°C° 0.1 mm 2 m/S 708 mmHg 83%
    21:00 +12°C° 0.1 mm 2 m/S 708 mmHg 86%
    22:00 +10°C° 0.1 mm 2 m/S 708 mmHg 90%
    23:00 +10°C° 0 mm 2 m/S 708 mmHg 90%

    26 Mai, Sonntag

    Zeit Temperatur Niederschläge Wind Luftdruck Luftfeuchtigkeit
    00:00 +10°C° 0 mm 2 m/S 707 mmHg 90%
    01:00 +10°C° 0 mm 2 m/S 707 mmHg 90%
    02:00 +10°C° 0.7 mm 3 m/S 707 mmHg 91%
    03:00 +10°C° 0.7 mm 3 m/S 706 mmHg 92%
    04:00 +10°C° 0.7 mm 4 m/S 706 mmHg 93%
    05:00 +10°C° 0.2 mm 4 m/S 706 mmHg 93%
    06:00 +10°C° 0.2 mm 4 m/S 706 mmHg 93%
    07:00 +10°C° 0.2 mm 4 m/S 707 mmHg 93%
    08:00 +9°C° 0.1 mm 5 m/S 706 mmHg 89%
    09:00 +10°C° 0.1 mm 6 m/S 706 mmHg 86%
    10:00 +10°C° 0.1 mm 6 m/S 706 mmHg 82%
    11:00 +10°C° 0 mm 7 m/S 706 mmHg 76%
    12:00 +11°C° 0 mm 8 m/S 705 mmHg 70%
    13:00 +11°C° 0 mm 9 m/S 705 mmHg 64%
    14:00 +10°C° 0.1 mm 8 m/S 705 mmHg 66%
    15:00 +9°C° 0.1 mm 8 m/S 706 mmHg 67%
    16:00 +7°C° 0.1 mm 8 m/S 706 mmHg 68%
    17:00 +7°C° 0 mm 6 m/S 707 mmHg 69%
    18:00 +6°C° 0 mm 5 m/S 707 mmHg 70%
    19:00 +5°C° 0 mm 4 m/S 708 mmHg 71%
    20:00 +4°C° 0 mm 4 m/S 708 mmHg 69%
    21:00 +4°C° 0 mm 4 m/S 708 mmHg 68%
    22:00 +4°C° 0 mm 4 m/S 709 mmHg 67%
    23:00 +4°C° 0 mm 4 m/S 709 mmHg 67%
    Mehr zeigen